TimeHST,TemperatureF,Dew PointF,Humidity,Sea Level PressureIn,VisibilityMPH,Wind Direction,Wind SpeedMPH,Gust SpeedMPH,PrecipitationIn,Events,Conditions,WindDirDegrees,DateUTC
12:53 AM,72.0,62.1,71,30.03,10.0,SE,6.9,-,N/A,,Clear,130,2012-11-09 10:53:00
1:53 AM,73.0,63.0,71,30.01,10.0,East,6.9,-,N/A,,Clear,100,2012-11-09 11:53:00
2:53 AM,71.1,61.0,70,30.00,10.0,NE,9.2,-,N/A,,Clear,40,2012-11-09 12:53:00
3:53 AM,72.0,62.1,71,29.99,10.0,East,6.9,-,N/A,,Clear,90,2012-11-09 13:53:00
4:53 AM,70.0,63.0,78,29.99,10.0,ENE,5.8,-,N/A,,Clear,70,2012-11-09 14:53:00
5:53 AM,72.0,63.0,73,30.00,10.0,East,5.8,-,N/A,,Clear,90,2012-11-09 15:53:00
6:53 AM,71.1,63.0,75,30.02,10.0,Calm,Calm,-,N/A,,Clear,0,2012-11-09 16:53:00
7:53 AM,77.0,64.9,66,30.03,10.0,SE,10.4,-,N/A,,Clear,130,2012-11-09 17:53:00
8:53 AM,80.1,64.9,60,30.05,10.0,Variable,5.8,-,N/A,,Clear,0,2012-11-09 18:53:00
9:53 AM,81.0,66.0,60,30.05,10.0,West,4.6,-,N/A,,Partly Cloudy,260,2012-11-09 19:53:00
10:53 AM,82.0,66.0,58,30.03,10.0,West,6.9,-,N/A,,Clear,260,2012-11-09 20:53:00
11:53 AM,81.0,66.0,60,30.02,10.0,WSW,8.1,-,N/A,,Overcast,240,2012-11-09 21:53:00
12:53 PM,82.0,66.0,58,29.99,10.0,South,11.5,-,N/A,,Overcast,190,2012-11-09 22:53:00
1:53 PM,82.0,66.9,60,29.96,10.0,SW,12.7,-,N/A,,Mostly Cloudy,230,2012-11-09 23:53:00
2:53 PM,82.0,66.0,58,29.94,10.0,WSW,8.1,-,N/A,,Overcast,240,2012-11-10 00:53:00
3:53 PM,84.0,64.0,51,29.94,10.0,Variable,6.9,-,N/A,,Partly Cloudy,0,2012-11-10 01:53:00
4:22 PM,82.4,57.2,42,29.94,10.0,NE,18.4,32.2,N/A,,Partly Cloudy,50,2012-11-10 02:22:00
4:53 PM,82.9,55.0,38,29.95,10.0,NE,24.2,29.9,N/A,,Clear,40,2012-11-10 02:53:00
5:53 PM,81.0,59.0,47,29.97,10.0,ENE,13.8,-,N/A,,Clear,70,2012-11-10 03:53:00
6:53 PM,79.0,55.0,44,29.98,10.0,North,5.8,-,N/A,,Partly Cloudy,10,2012-11-10 04:53:00
7:53 PM,75.9,64.9,69,29.99,10.0,ESE,11.5,-,N/A,,Clear,120,2012-11-10 05:53:00
8:44 PM,78.8,60.8,54,30.01,10.0,NE,5.8,-,N/A,,Mostly Cloudy,40,2012-11-10 06:44:00
8:53 PM,78.1,61.0,56,30.01,10.0,North,4.6,-,N/A,,Overcast,360,2012-11-10 06:53:00
9:25 PM,77.0,62.6,61,30.01,10.0,NE,4.6,-,N/A,,Mostly Cloudy,50,2012-11-10 07:25:00
9:53 PM,78.1,60.1,54,30.01,10.0,NNW,3.5,-,N/A,,Overcast,330,2012-11-10 07:53:00
10:53 PM,75.9,63.0,64,30.00,10.0,SSE,3.5,-,N/A,,Clear,150,2012-11-10 08:53:00
11:53 PM,75.9,63.0,64,30.00,10.0,East,8.1,-,N/A,,Clear,100,2012-11-10 09:53:00